FW9150 Weather Reports


time (UTC)temp
F
wind
direction
speed
knots
gust
knots
rain 1hr
in
rain 24hr
in
rain mn
in
humidity
%
barometer
mb
20260504182929 43 157 0.0 0.9 0.00 0.16 0.16 91 1016.7
20260504181028 44 135 0.0 0.9 0.00 0.16 0.16 91 1016.7
20260504180127 44 135 0.0 0.0 0.00 0.16 0.16 91 1016.6
20260504175128 44 135 0.0 0.0 0.00 0.16 0.16 91 1016.9
20260504174128 44 135 0.0 0.0 0.00 0.16 0.16 92 1016.6
20260504173227 43 157 0.0 0.0 0.01 0.16 0.16 92 1016.2
20260504172230 43 157 0.0 0.0 0.01 0.16 0.16 92 1016.2
20260504171328 43 135 0.0 0.0 0.01 0.16 0.16 91 1016.2
20260504160227 41 135 0.0 0.0 0.11 0.15 0.15 93 1016.0
20260504150228 41 135 0.0 0.0 0.04 0.04 0.04 92 1016.2
20260504140327 42 157 0.0 0.0 0.00 0.00 0.00 92 1015.8
20260504130327 44 135 0.0 0.0 0.00 0.00 0.00 90 1015.4
20260504110429 44 135 0.0 0.0 0.00 0.00 0.00 91 1015.5
20260504081027 44 135 0.0 0.0 0.00 0.00 0.00 91 1016.3
20260504070128 45 135 0.0 0.0 0.00 0.00 0.00 90 1016.5
20260504060225 46 131 0.0 1.7 0.00 0.00 0.00 89 1016.2
20260504050326 47 45 0.0 0.0 0.00 0.00 0.00 86 1016.4
20260504045423 47 45 0.0 0.0 0.00 0.00 0.00 86 1016.7
20260504044427 48 45 0.0 0.0 0.00 0.00 0.00 86 1016.6
20260504043525 48 45 0.0 0.0 0.00 0.00 0.00 86 1016.5
20260504042623 48 67 0.0 0.0 0.00 0.00 0.00 86 1016.4
20260504041625 48 67 0.0 0.0 0.00 0.00 0.00 86 1016.2
20260504040626 48 67 0.0 0.0 0.00 0.00 0.00 86 1016.1
20260504035625 48 67 0.0 0.0 0.00 0.00 0.00 85 1016.0
20260504034625 48 67 0.0 0.0 0.00 0.00 0.00 85 1015.9
20260504033626 48 67 0.0 0.0 0.00 0.00 0.00 86 1015.7
20260504032725 48 67 0.0 0.0 0.00 0.00 0.00 85 1015.8
20260504031726 48 67 0.0 0.0 0.00 0.00 0.00 86 1015.7
20260504030725 49 67 0.0 0.0 0.00 0.00 0.00 85 1015.6
20260504025726 49 67 0.0 0.0 0.00 0.00 0.00 85 1015.6
20260504024726 49 45 0.0 0.0 0.00 0.00 0.00 84 1015.5
20260504023725 49 45 0.0 0.0 0.00 0.00 0.00 83 1015.6
20260504022723 49 45 0.0 0.0 0.00 0.00 0.00 83 1015.4
20260504021823 50 45 0.0 0.0 0.00 0.00 0.00 83 1015.4
20260504020824 50 90 0.0 0.0 0.00 0.00 0.00 82 1015.4
20260504015824 51 90 0.0 0.0 0.00 0.00 0.00 81 1015.4
20260504014824 51 73 0.0 0.0 0.00 0.00 0.00 81 1015.4
20260504013841 51 104 0.0 0.0 0.00 0.00 0.00 80 1015.6
20260504011939 52 135 0.0 0.0 0.00 0.00 0.00 79 1015.6
20260504010926 53 135 0.0 0.0 0.00 0.00 0.00 77 1015.4
20260504005924 53 135 0.0 0.0 0.00 0.00 0.00 76 1015.6
20260504004925 54 135 0.0 0.0 0.00 0.00 0.00 75 1015.6
20260504003926 54 135 0.0 0.0 0.00 0.00 0.00 72 1015.5
20260504002925 55 77 0.0 1.7 0.00 0.00 0.00 71 1015.4
20260504001924 55 22 0.0 0.0 0.00 0.00 0.00 70 1015.4
20260504000925 56 22 0.0 0.0 0.00 0.00 0.00 69 1015.6
20260503235926 56 22 0.0 0.0 0.00 0.00 0.00 69 1015.4
20260503234925 57 35 0.0 0.0 0.00 0.00 0.00 69 1015.6
20260503233924 57 135 0.0 0.0 0.00 0.00 0.00 68 1015.6
20260503232924 57 135 0.0 0.0 0.00 0.00 0.00 68 1015.6
20260503231924 57 360 0.0 0.0 0.00 0.00 0.00 68 1015.7
20260503230926 57 360 0.0 0.0 0.00 0.00 0.00 69 1015.7
20260503225925 57 112 0.0 0.9 0.00 0.00 0.00 71 1015.7
20260503224025 56 135 0.0 0.0 0.00 0.00 0.00 71 1015.9
20260503223024 56 135 0.0 0.9 0.00 0.00 0.00 70 1016.1
20260503222024 56 135 0.0 0.9 0.00 0.00 0.00 71 1016.1
20260503221025 56 90 0.0 0.0 0.00 0.00 0.00 70 1016.1
20260503220026 56 135 0.0 0.9 0.00 0.00 0.00 70 1016.1
20260503215024 57 225 0.0 0.9 0.00 0.00 0.00 69 1016.1
20260503214026 57 135 0.0 0.9 0.00 0.00 0.00 70 1016.0
20260503213123 58 45 0.0 0.0 0.00 0.00 0.00 68 1015.9
20260503212124 58 35 0.9 3.5 0.00 0.00 0.00 68 1015.8
20260503211124 59 305 0.0 0.0 0.00 0.00 0.00 58 1016.0
20260503210124 59 149 2.6 5.2 0.00 0.00 0.00 39 1015.8
20260503205125 60 233 1.7 3.5 0.00 0.00 0.00 40 1015.9
20260503204125 59 166 2.6 6.1 0.00 0.00 0.00 39 1015.8
20260503203124 59 180 2.6 4.3 0.00 0.00 0.00 39 1015.8
20260503202223 59 221 1.7 3.5 0.00 0.00 0.00 39 1015.9
20260503201226 59 195 2.6 3.5 0.00 0.00 0.00 37 1015.8
20260503200226 60 199 4.3 9.6 0.00 0.00 0.00 37 1016.0
20260503195226 61 173 3.5 5.2 0.00 0.00 0.00 35 1015.9
20260503191224 61 229 2.6 5.2 0.00 0.00 0.00 35 1016.0
20260503190225 62 194 5.2 9.6 0.00 0.00 0.00 35 1016.0
20260503185225 62 238 0.9 2.6 0.00 0.00 0.00 35 1016.1